Location: Frankfurt+am+Main
(50.1100°N, 8.4815°E)
Time: 00:19:29
(UTC+02:00)

ELECTRON R/B - Visible Passes

Search period start: 22 May 2018 00:00
Search period end: 01 June 2018 00:00
Orbit: 285 x 480 km, 82.9° (Epoch: 20 May)

Date Brightness Start Highest point End Pass type
(mag) Time Alt. Az. Time Alt. Az. Time Alt. Az.
22 May 4.4 22:06:08 10° NNW 22:08:34 75° W 22:11:00 10° S visible
23 May 7.3 22:43:18 10° NW 22:44:46 15° W 22:46:13 10° SW visible
25 May 7.2 22:22:44 10° NW 22:24:26 17° W 22:26:07 10° SW visible
27 May 7.0 22:01:54 10° NW 22:03:48 20° W 22:05:42 10° SW visible
